Cloud_Cover
2 0 0 70 100 100 100 100 100 100 100 100 100 100 100 100 32 28 4 0 0 0 4 87 100 100 100 100 100 89 86 100 100 80 100 100 99 71 100 88 98 97 98
59 34 100 100 100 100 100 100 100 100 100 100 100 100 100 100 45 7 1 0 0 0 0 33 100 100 100 100 100 99 95 77 100 89 100 100 98 100 100 84 64 52 50
100 100 100 100 100 100 100 100 100 100 100 100 100 100 100 100 5 3 5 8 1 0 0 0 94 91 100 100 100 100 100 100 96 100 100 80 98 100 100 98 100 100 100
100 100 100 100 100 100 100 100 100 100 100 100 100 100 100 99 71 4 0 2 14 3 0 0 69 100 100 99 56 100 100 100 100 100 85 95 71 98 99 100 100 100 96
100 100 100 100 100 100 100 100 100 100 100 100 100 100 100 100 98 98 55 1 89 30 3 1 3 4 100 100 78 89 100 100 100 100 100 100 99 100 100 96 63 97 100
100 100 100 100 100 100 100 100 100 100 100 100 100 100 100 100 94 87 14 24 66 4 0 5 5 0 5 99 100 100 100 100 100 74 44 16 72 15 68 41 80 100 100
100 100 100 100 100 100 100 100 100 100 100 100 100 100 100 100 100 91 96 100 90 2 7 15 5 9 1 44 9 94 94 100 100 100 99 35 5 5 6 97 43 100 100
52 100 100 100 100 100 100 100 100 100 100 100 100 100 100 100 100 100 64 100 66 10 2 24 5 5 5 4 5 5 21 15 86 88 100 100 100 100 89 93 96 75 95
95 100 58 100 100 100 100 100 100 100 100 100 100 100 100 100 100 100 96 100 57 20 27 96 99 11 5 94 100 92 5 5 38 100 96 88 66 93 39 100 100 100 100
99 100 100 100 100 100 100 100 100 100 100 100 100 100 100 100 100 100 100 100 100 90 100 80 70 100 71 5 3 12 92 99 97 94 40 43 85 76 68 82 22 81 100
5 10 85 100 51 96 100 100 100 100 100 100 100 100 100 100 100 100 100 100 100 100 100 100 100 90 74 60 22 37 29 80 54 65 30 90 95 100 74 97 100 47 86
5 5 90 100 100 79 100 100 100 100 100 100 100 100 100 100 100 100 100 100 100 100 100 100 97 98 71 88 92 86 83 62 100 69 23 90 100 100 100 98 98 99 92
0 1 16 80 49 33 100 100 100 100 100 100 100 100 100 100 100 100 100 100 100 100 100 100 100 100 100 100 100 100 90 88 38 99 65 10 85 100 87 98 100 49 28
0 0 6 96 14 5 90 100 100 100 100 100 100 98 99 100 100 100 100 61 13 82 100 98 48 54 40 82 90 88 100 100 98 100 100 99 93 100 100 49 98 100 91
0 0 5 90 49 43 55 76 100 100 100 100 100 100 100 100 91 100 100 100 97 100 100 48 16 2 4 10 8 5 31 90 100 95 100 100 100 100 79 71 85 94 100
0 0 1 42 5 5 8 70 48 100 100 100 100 100 100 100 99 100 100 100 100 100 100 81 9 6 2 75 10 60 24 26 12 45 30 56 72 35 62 99 100 100 100
0 0 0 2 0 0 5 18 6 11 27 100 100 100 100 98 100 100 100 100 100 100 100 100 100 100 47 7 7 69 100 58 43 66 98 37 32 45 100 79 100 100 100
0 0 0 0 0 3 0 5 27 17 15 6 74 95 100 100 100 100 100 100 100 100 100 100 100 100 100 100 100 100 100 100 92 100 100 64 85 100 92 100 100 100 100
0 0 0 0 0 0 0 26 16 21 61 64 100 96 100 100 100 100 100 100 100 100 100 100 100 100 100 100 100 100 100 100 100 100 100 100 100 100 100 100 100 100 100
0 0 0 0 4 71 12 0 3 68 32 75 100 100 93 75 75 100 100 100 100 100 100 100 100 100 100 100 100 100 100 100 100 100 99 99 100 100 100 100 100 100 100
5 54 76 7 3 100 98 100 48 47 16 0 0 17 98 100 100 100 100 100 100 100 100 100 100 100 100 68 75 82 100 100 100 100 100 100 100 100 100 100 100 100 100
41 40 88 80 24 5 2 18 68 66 5 1 17 13 97 19 98 100 100 100 100 100 100 100 100 100 100 100 100 100 100 100 100 100 100 100 100 100 100 100 100 100 100
100 100 100 100 100 89 73 5 4 2 3 30 78 0 11 70 100 100 100 100 91 82 94 84 100 100 100 100 100 100 100 100 100 100 100 100 100 100 100 100 100 100 100
100 24 14 8 17 2 3 0 1 15 2 7 100 20 82 100 99 100 100 100 100 92 12 34 100 100 100 100 100 100 100 100 100 100 100 100 100 100 100 100 100 100 100
0 0 0 58 56 0 0 0 0 0 0 0 0 40 52 78 95 79 98 73 100 95 67 65 28 30 96 100 100 100 100 100 100 100 100 100 100 100 100 100 100 100 100
0 0 3 4 96 3 1 18 45 7 6 2 0 0 1 5 38 95 83 100 86 46 93 98 100 100 67 39 82 67 99 100 100 100 100 100 100 100 100 100 100 95 100